軌道要素
Epoch 2014 Jan. 23.0 TT = JDT 2456680.5
T 2014 Jan. 23.15882 TT MPCW
q 7.4986290 (2000.0) P Q
z -0.0002218 Peri. 35.99490 -0.46426790 -0.42427652
+/-0.0000019 Node 262.74578 -0.87729611 +0.34088880
e 1.0016629 Incl. 128.39629 +0.12168339 +0.83891850
From 191 observations 2013 Apr. 22-2015 June 11, mean residual 0".6.
|